Tracking 31027 objects as of 19-Jul-2025
HD Live streaming from Space Station
objects crossing your sky now

HGS 4 (GALAXY 4)

Track HGS 4 (GALAXY 4) now!
HGS 4 (GALAXY 4) is classified as:


NORAD ID: 22694
Int'l Code: 1993-039A
Perigee: 35,739.3 km
Apogee: 35,844.3 km
Inclination: 14.6 °
Period: 1,436.0 minutes
Semi major axis: 42162 km
RCS: 28.88 m2 (large)
Launch date: June 25, 1993
Source: United States (US)
Launch site: FRENCH GUIANA (FRGUI)
Your satellite tracking list
RESURS O1 DEB
Track 1 satellite(s)




NASA's NSSDC Master Catalog

Two Line Element Set (TLE):
1 22694U 93039A   25199.87985308 -.00000139  00000-0  00000+0 0  9994
2 22694  14.5872 357.6690 0012457  51.2318 282.3160  1.00278723115657
Source of the keplerian elements: AFSPC